Regional Weather Roundup
Issued by NWS

Home | Current Version | Previous Version | Text Only | Print | Product List | Glossary On
Versions: 1 2 3 4 5 6 7 8 9 10 11 12 13 14 15 16 17 18 19 20 21 22 23 24 25 26 27 28 29 30 31 32 33 34 35 36 37 38 39 40 41 42 43 44 45 46 47 48 49 50
000
ASUS45 KPSR 311010
RWRAZ

ARIZONA REGIONAL HOURLY WEATHER ROUNDUP
NATIONAL WEATHER SERVICE PHOENIX AZ
300 AM MST SAT JAN 31 2015

NOTE: FAIR INDICATES FEW OR NO CLOUDS BELOW 12,000 FEET WITH NO
SIGNIFICANT WEATHER AND/OR OBSTRUCTIONS TO VISIBILITY.

AZZ001>003-036-311100-
NORTHWEST ARIZONA

CITY           SKY/WX    TMP DP  RH WIND       PRES   REMARKS
BULLHEAD CITY  CLOUDY    55  48  76 N5        29.85F
KINGMAN        CLOUDY    46  44  93 NE3       29.85S
$$

AZZ004>008-015-016-018-311100-
NORTH CENTRAL ARIZONA

CITY           SKY/WX    TMP DP  RH WIND       PRES   REMARKS
GRAND CANYON   CLOUDY    38  37  97 S3        29.88F
PRESCOTT       CLOUDY    41  38  89 CALM      29.86S
FLAGSTAFF      CLOUDY    36  34  92 CALM      29.88S
PAYSON         FOG       43  41  93 VRB3      29.89F VSB 1/4
$$

AZZ009>014-017-311100-
NORTHEAST ARIZONA

CITY           SKY/WX    TMP DP  RH WIND       PRES   REMARKS
WINSLOW        CLOUDY    43  41  93 E6        29.86S
SAINT JOHNS    CLOUDY    41  38  89 E7        29.87S
WINDOW ROCK    CLOUDY    35  31  85 SE3       29.89F
SHOW LOW       CLOUDY    36  32  87 S10       29.90F WCI  28
$$

AZZ023-311100-
GREATER PHOENIX AREA

CITY           SKY/WX    TMP DP  RH WIND       PRES   REMARKS
PHOENIX        CLOUDY    56  53  90 E5        29.80F
BUCKEYE          N/A     55  55 100 NE5       29.82F
LUKE AFB       CLOUDY    56  54  94 NW2       29.80F
DEER VALLEY    CLOUDY    54  52  93 CALM      29.81F
SCOTTSDALE     CLOUDY    55  52  89 CALM      29.84F
MESA-GATEWAY   LGT RAIN  52  52 100 CALM      29.84S
$$

AZZ027-028-311100-
SOUTHWEST MARICOPA COUNTY AND PINAL COUNTY

CITY           SKY/WX    TMP DP  RH WIND       PRES   REMARKS
CASA GRANDE    CLOUDY    54  52  94 CALM      29.82F
GILA BEND      CLOUDY    57  57 100 CALM      29.81F
$$

AZZ503-504-507>509-311100-
SOUTHEAST ARIZONA

CITY           SKY/WX    TMP DP  RH WIND       PRES   REMARKS
TUCSON         CLOUDY    54  52  93 SE3       29.84F
DAVIS-MONTHAN  CLOUDY    52  52 100 SE5       29.82F
NOGALES        LGT RAIN  48  45  89 S6        29.85F
SIERRA VISTA   LGT RAIN  46  46 100 CALM      29.86F
DOUGLAS        RAIN      47  45  93 SE3       29.88F
SAFFORD        LGT RAIN  47  46  97 SE8       29.86F
$$

AZZ020-021-025-026-031-311100-
SOUTHWEST ARIZONA

CITY           SKY/WX    TMP DP  RH WIND       PRES   REMARKS
YUMA           CLOUDY    58  54  86 CALM      29.81F
$$

CAZ031-033-041-043-047-048-061-311100-
SOUTHERN CALIFORNIA

CITY           SKY/WX    TMP DP  RH WIND       PRES   REMARKS
DOWNTOWN L.A.  MOCLDY    59  55  87 CALM      29.85S
L.A. AIRPORT   MOCLDY    58  55  90 S3        29.86S
SAN DIEGO      MOCLDY    60  54  80 CALM      29.88F
BURBANK        MOCLDY    54  52  93 CALM      29.85F
ONTARIO        MOCLDY    54  50  86 CALM      29.86F
RIVERSIDE      CLOUDY    53  51  93 CALM      29.86F
PALM SPRINGS   CLOUDY    58  51  78 W5        29.84F
EL CENTRO NAS  PTCLDY    51  46  83 SW5       29.81F
IMPERIAL       PTCLDY    52  49  89 CALM      29.81F
BLYTHE         MOCLDY    54  53  97 NW3       29.82F
NEEDLES        CLOUDY    55  49  80 N3        29.83F
$$

NVZ020-UTZ003-311100-
SOUTHERN NEVADA-UTAH

CITY           SKY/WX    TMP DP  RH WIND       PRES   REMARKS
LAS VEGAS      LGT RAIN  49  46  90 S6        29.83S
SALT LAKE CITY CLOUDY    40  36  86 W5        29.96S
$$

NMZ009-TXZ055-311100-
NEW MEXICO-WEST TEXAS

CITY           SKY/WX    TMP DP  RH WIND       PRES   REMARKS
ALBUQUERQUE    LGT SNOW  33  32  96 N6        29.96F FOG     WCI  28
EL PASO        CLOUDY    44  41  89 N7        29.93F
$$


........................KEY........................
SKY/WX - SKY CONDITION/WEATHER
TMP    - TEMPERATURE IN FAHRENHEIT
DP     - DEW POINT IN FAHRENHEIT
RH     - RELATIVE HUMIDITY IN PERCENT
WIND   - DIRECTION AND SPEED IN MILES PER HOUR (MPH)
VRB    - VARIABLE WIND DIRECTION
PRES   - MEAN SEA LEVEL PRESSURE IN INCHES OF MERCURY
         F - FALLING PRESSURE   R - RISING PRESSURE
         S - STEADY PRESSURE
VSB    - VISIBILITY IN MILES
HX     - HEAT INDEX IN FAHRENHEIT
WCI    - WIND CHILL INDEX IN FAHRENHEIT
TC     - TEMPERATURE IN CELSIUS WHICH IS ALSO KNOWN AS
         TEMPERATURE IN CENTIGRADE
AFB    - AIR FORCE BASE
         LUKE AFB IS LUKE AIR FORCE BASE
         DAVIS-MONTHAN IS DAVIS-MONTHAN AIR FORCE BASE
NAS    - NAVAL AIR STATION
         EL CENTRO NAS IS EL CENTRO NAVAL AIR STATION
N/A    - NOT AVAILABLE



USA.gov is the U.S. government's official web portal to all federal, state and local government web resources and services.